Weather History for Warroad, MN

Change the Weather History Date:

Saturday, March 1, 2014

  Actual Average Record
Temperature  
Mean Temperature -18 °F -  
Max Temperature -11 °F 27 °F 42 °F (1985)
Min Temperature -25 °F 6 °F -33 °F (1962)
Degree Days  
Heating Degree Days 83    
Moisture  
Dew Point -29 °F    
Average Humidity 61    
Maximum Humidity 76    
Minimum Humidity 41    
Precipitation  
Precipitation 0.00 in - - ()
Sea Level Pressure  
Sea Level Pressure 30.40 in    
Wind  
Wind Speed 11 mph (West)    
Max Wind Speed 17 mph    
Max Gust Speed 23 mph    
Visibility 10 miles    
Events      
Averages and records for this station are not official NWS values.
T = Trace of Precipitation, MM = Missing Value Source: NWS Daily Summary

Daily Weather History Graph

Daily Weather History Graph

Search for Another Location

Airport:

Trip Planner

Search our weather history database for the weather conditions in past years. The results will help you decide how hot, cold, wet, or windy it might be!

Date:

Astronomy

Mar. 01, 2014 Rise Set
Actual Time 7:03 AM CST 6:04 PM CST
Civil Twilight 6:31 AM CST 6:36 PM CST
Nautical Twilight 5:55 AM CST 7:13 PM CST
Astronomical Twilight 5:18 AM CST 7:50 PM CST
Moon 6:53 AM CST (3/1) 7:00 PM CST (3/1)
Length of Visible Light 12h 05m
Length of Day
11h 01m
New Moon, 0% of the Moon is Illuminated
Mar 1
New Moon
Mar 8
First Quarter
Mar 16
Full
Mar 23
Last Quarter
Mar 30
New

Hourly Weather History & Observations

Time (CST) Temp. Windchill Dew Point Humidity Pressure Visibility Wind Dir Wind Speed Gust Speed Precip Events Conditions
12:14 AM -16.6 °F -39.8 °F -23.8 °F 70% 30.23 in 10.0 mi WNW 13.8 mph 19.6 mph N/A   Clear
12:34 AM -16.6 °F -38.9 °F -23.8 °F 70% 30.24 in 10.0 mi WNW 12.7 mph 16.1 mph N/A   Clear
12:54 AM -16.6 °F -38.9 °F -25.6 °F 64% 30.25 in 10.0 mi WNW 12.7 mph - N/A   Clear
1:14 AM -16.6 °F -38.9 °F -25.6 °F 64% 30.27 in 10.0 mi WNW 12.7 mph - N/A   Clear
1:34 AM -18.4 °F -42.9 °F -25.6 °F 70% 30.28 in 10.0 mi WNW 15.0 mph 18.4 mph N/A   Clear
1:54 AM -18.4 °F -44.5 °F -25.6 °F 70% 30.28 in 10.0 mi WNW 17.3 mph - N/A   Clear
2:13 AM -18.4 °F -41.2 °F -25.6 °F 70% 30.29 in 10.0 mi WNW 12.7 mph - N/A   Clear
2:34 AM -18.4 °F -42.1 °F -27.4 °F 63% 30.28 in 10.0 mi NW 13.8 mph 18.4 mph N/A   Clear
2:54 AM -20.2 °F -43.4 °F -27.4 °F 69% 30.29 in 10.0 mi NW 12.7 mph - N/A   Clear
3:13 AM -20.2 °F -41.3 °F -27.4 °F 69% 30.29 in 10.0 mi WNW 10.4 mph - N/A   Clear
3:34 AM -20.2 °F -38.8 °F -27.4 °F 69% 30.31 in 10.0 mi WNW 8.1 mph - N/A   Clear
3:54 AM -20.2 °F -40.1 °F -27.4 °F 69% 30.31 in 10.0 mi WNW 9.2 mph - N/A   Clear
4:14 AM -22.0 °F -39.4 °F -29.2 °F 69% 30.32 in 10.0 mi WNW 6.9 mph - N/A   Clear
4:34 AM -23.8 °F -39.8 °F -29.2 °F 76% 30.33 in 10.0 mi West 5.8 mph - N/A   Clear
4:54 AM -23.8 °F -39.8 °F -29.2 °F 76% 30.34 in 10.0 mi West 5.8 mph - N/A   Clear
5:14 AM -23.8 °F -43.2 °F -29.2 °F 76% 30.35 in 10.0 mi WNW 8.1 mph - N/A   Clear
5:34 AM -23.8 °F -43.2 °F -29.2 °F 76% 30.36 in 10.0 mi West 8.1 mph - N/A   Clear
5:54 AM -23.8 °F -43.2 °F -29.2 °F 76% 30.36 in 10.0 mi WNW 8.1 mph - N/A   Clear
6:14 AM -23.8 °F -41.6 °F -31.0 °F 69% 30.37 in 10.0 mi WNW 6.9 mph - N/A   Clear
6:34 AM -23.8 °F -43.2 °F -32.8 °F 63% 30.38 in 10.0 mi West 8.1 mph - N/A   Clear
6:54 AM -25.6 °F -43.8 °F -32.8 °F 69% 30.40 in 10.0 mi West 6.9 mph - N/A   Clear
7:14 AM -25.6 °F -43.8 °F -32.8 °F 69% 30.39 in 10.0 mi West 6.9 mph - N/A   Clear
7:34 AM -25.6 °F -43.8 °F -32.8 °F 69% 30.40 in 10.0 mi West 6.9 mph - N/A   Clear
7:54 AM -25.6 °F -43.8 °F -32.8 °F 69% 30.41 in 10.0 mi West 6.9 mph - N/A   Clear
8:14 AM -25.6 °F -45.4 °F -32.8 °F 69% 30.42 in 10.0 mi WNW 8.1 mph - N/A   Clear
8:34 AM -23.8 °F -43.2 °F -32.8 °F 63% 30.43 in 10.0 mi WNW 8.1 mph - N/A   Clear
8:54 AM -23.8 °F -41.6 °F -31.0 °F 69% 30.44 in 10.0 mi WNW 6.9 mph - N/A   Clear
9:14 AM -22.0 °F -41.0 °F -29.2 °F 69% 30.44 in 10.0 mi West 8.1 mph - N/A   Clear
9:34 AM -20.2 °F -38.8 °F -29.2 °F 63% 30.44 in 10.0 mi WNW 8.1 mph - N/A   Clear
9:54 AM -18.4 °F -39.1 °F -29.2 °F 58% 30.43 in 10.0 mi West 10.4 mph - N/A   Clear
10:14 AM -18.4 °F -42.1 °F -29.2 °F 58% 30.43 in 10.0 mi West 13.8 mph - N/A   Clear
10:34 AM -18.4 °F -41.2 °F -27.4 °F 63% 30.45 in 10.0 mi WNW 12.7 mph - N/A   Clear
10:54 AM -16.6 °F -37.9 °F -27.4 °F 58% 30.46 in 10.0 mi WNW 11.5 mph - N/A   Clear
11:14 AM -16.6 °F -37.9 °F -27.4 °F 58% 30.46 in 10.0 mi WNW 11.5 mph - N/A   Clear
11:34 AM -14.8 °F -33.5 °F -27.4 °F 53% 30.46 in 10.0 mi WSW 9.2 mph 16.1 mph N/A   Clear
11:54 AM -14.8 °F -35.6 °F -27.4 °F 53% 30.46 in 10.0 mi West 11.5 mph 17.3 mph N/A   Clear
12:13 PM -14.8 °F -35.6 °F -29.2 °F 48% 30.46 in 10.0 mi West 11.5 mph 17.3 mph N/A   Clear
12:34 PM -13.0 °F -34.3 °F -29.2 °F 44% 30.46 in 10.0 mi WNW 12.7 mph - N/A   Clear
12:54 PM -13.0 °F -37.5 °F -29.2 °F 44% 30.46 in 10.0 mi WNW 17.3 mph 20.7 mph N/A   Clear
1:14 PM -13.0 °F -35.2 °F -29.2 °F 44% 30.45 in 10.0 mi WNW 13.8 mph 17.3 mph N/A   Clear
1:34 PM -13.0 °F -36.8 °F -29.2 °F 44% 30.45 in 10.0 mi West 16.1 mph - N/A   Clear
1:54 PM -11.2 °F -34.4 °F -29.2 °F 41% 30.45 in 10.0 mi West 16.1 mph 23.0 mph N/A   Clear
2:14 PM -11.2 °F -34.4 °F -29.2 °F 41% 30.45 in 10.0 mi West 16.1 mph 20.7 mph N/A   Clear
2:34 PM -11.2 °F -32.1 °F -29.2 °F 41% 30.44 in 10.0 mi WNW 12.7 mph 18.4 mph N/A   Clear
2:54 PM -13.0 °F -34.3 °F -27.4 °F 49% 30.45 in 10.0 mi West 12.7 mph 21.9 mph N/A   Clear
3:14 PM -14.8 °F -37.5 °F -27.4 °F 53% 30.45 in 5.0 mi WSW 13.8 mph 23.0 mph N/A   Haze
3:34 PM -14.8 °F -35.6 °F -27.4 °F 53% 30.45 in 10.0 mi WSW 11.5 mph 20.7 mph N/A   Clear
3:54 PM -14.8 °F -37.5 °F -29.2 °F 48% 30.46 in 10.0 mi WSW 13.8 mph 18.4 mph N/A   Clear
4:14 PM -14.8 °F -38.3 °F -27.4 °F 53% 30.45 in 7.0 mi WSW 15.0 mph 20.7 mph N/A   Clear
4:34 PM -14.8 °F -37.5 °F -29.2 °F 48% 30.45 in 10.0 mi WSW 13.8 mph 23.0 mph N/A   Clear
4:54 PM -14.8 °F -37.5 °F -27.4 °F 53% 30.45 in 10.0 mi WSW 13.8 mph 20.7 mph N/A   Clear
5:14 PM -14.8 °F -37.5 °F -27.4 °F 53% 30.45 in 10.0 mi WSW 13.8 mph 19.6 mph N/A   Clear
5:34 PM -16.6 °F -38.9 °F -27.4 °F 58% 30.44 in 10.0 mi WSW 12.7 mph 18.4 mph N/A   Clear
5:54 PM -16.6 °F -35.7 °F -27.4 °F 58% 30.44 in 10.0 mi WSW 9.2 mph - N/A   Clear
6:14 PM -18.4 °F -39.1 °F -27.4 °F 63% 30.43 in 10.0 mi WSW 10.4 mph - N/A   Clear
6:34 PM -18.4 °F -35.1 °F -27.4 °F 63% 30.43 in 10.0 mi WSW 6.9 mph - N/A   Clear
6:54 PM -18.4 °F -36.6 °F -29.2 °F 58% 30.43 in 10.0 mi SW 8.1 mph - N/A   Clear
7:14 PM -18.4 °F -35.1 °F -29.2 °F 58% 30.43 in 10.0 mi SW 6.9 mph - N/A   Clear
7:34 PM -20.2 °F -37.3 °F -29.2 °F 63% 30.43 in 10.0 mi SW 6.9 mph - N/A   Clear
7:54 PM -20.2 °F -38.8 °F -27.4 °F 69% 30.43 in 10.0 mi SW 8.1 mph - N/A   Clear
8:14 PM -18.4 °F -36.6 °F -27.4 °F 63% 30.43 in 10.0 mi WSW 8.1 mph - N/A   Clear
8:34 PM -18.4 °F -39.1 °F -29.2 °F 58% 30.42 in 10.0 mi SW 10.4 mph 18.4 mph N/A   Clear
8:54 PM -20.2 °F -40.1 °F -29.2 °F 63% 30.42 in 10.0 mi SW 9.2 mph - N/A   Clear
9:14 PM -20.2 °F -41.3 °F -29.2 °F 63% 30.42 in 10.0 mi WSW 10.4 mph - N/A   Clear
9:34 PM -20.2 °F -38.8 °F -29.2 °F 63% 30.42 in 10.0 mi WSW 8.1 mph - N/A   Clear
9:54 PM -20.2 °F -41.3 °F -29.2 °F 63% 30.42 in 10.0 mi WSW 10.4 mph - N/A   Clear
10:14 PM -20.2 °F -38.8 °F -29.2 °F 63% 30.42 in 10.0 mi WSW 8.1 mph - N/A   Clear
10:34 PM -20.2 °F -35.5 °F -29.2 °F 63% 30.41 in 10.0 mi SW 5.8 mph - N/A   Clear
10:54 PM -22.0 °F -41.0 °F -29.2 °F 69% 30.41 in 10.0 mi SW 8.1 mph - N/A   Clear
11:14 PM -22.0 °F -39.4 °F -29.2 °F 69% 30.41 in 10.0 mi WSW 6.9 mph - N/A   Clear
11:34 PM -20.2 °F -40.1 °F -29.2 °F 63% 30.41 in 10.0 mi SW 9.2 mph - N/A   Clear
11:54 PM -20.2 °F -38.8 °F -29.2 °F 63% 30.40 in 10.0 mi WSW 8.1 mph - N/A   Clear